This is the latest recevied weather packets stored in our database for station/object AD0YN. If no packets are shown the sender has not sent any weather packets the latest 10 day(s).
| Time | Temp. | Humidity | Pressure | Rain* | Wind** | Luminosity | Snow |
|---|---|---|---|---|---|---|---|
| 1777848440 | 25.56° C | 33% | 1008.5 hPa | 0 mm | - | 346 W/m² | - |
| 1777848139 | 25.56° C | 35% | 1008.5 hPa | 0 mm | - | 359 W/m² | - |
| 1777847835 | 26.11° C | 33% | 1008.1 hPa | 0 mm | - | 388 W/m² | - |
| 1777847533 | 25.56° C | 34% | 1008.2 hPa | 0 mm | - | 392 W/m² | - |
| 1777847229 | 25.56° C | 34% | 1008.3 hPa | 0 mm | - | 426 W/m² | - |
| 1777846927 | 25.56° C | 34% | 1008.3 hPa | 0 mm | - | 411 W/m² | - |
| 1777846626 | 25.56° C | 36% | 1008.5 hPa | 0 mm | - | 490 W/m² | - |
| 1777846323 | 25.56° C | 33% | 1008.5 hPa | 0 mm | - | 286 W/m² | - |
| 1777846019 | 26.11° C | 34% | 1008.5 hPa | 0 mm | - | 420 W/m² | - |
| 1777845716 | 25.56° C | 33% | 1008.6 hPa | 0 mm | - | 540 W/m² | - |
| 1777845413 | 25.56° C | 32% | 1008.6 hPa | 0 mm | - | 487 W/m² | - |
| 1777845109 | 26.11° C | 35% | 1008.6 hPa | 0 mm | - | 528 W/m² | - |
| 1777844809 | 25.56° C | 33% | 1008.7 hPa | 0 mm | - | 578 W/m² | - |
| 1777844504 | 25.56° C | 35% | 1008.5 hPa | 0 mm | - | 632 W/m² | - |
| 1777844203 | 25° C | 32% | 1008.6 hPa | 0 mm | - | 531 W/m² | - |
| 1777843900 | 25.56° C | 34% | 1009 hPa | 0 mm | - | 595 W/m² | - |
| 1777843597 | 25.56° C | 33% | 1009.1 hPa | 0 mm | - | 641 W/m² | - |
| 1777843294 | 25.56° C | 33% | 1008.9 hPa | 0 mm | - | 647 W/m² | - |
| 1777842993 | 25° C | 34% | 1008.9 hPa | 0 mm | - | 690 W/m² | - |
| 1777842693 | 25° C | 38% | 1008.9 hPa | 0 mm | - | 699 W/m² | - |
| 1777842389 | 25° C | 35% | 1009.1 hPa | 0 mm | - | 673 W/m² | - |
| 1777842086 | 25° C | 34% | 1009.2 hPa | 0 mm | - | 288 W/m² | - |
| 1777841782 | 25° C | 37% | 1009.4 hPa | 0 mm | - | 745 W/m² | - |
| 1777841478 | 25° C | 38% | 1009.4 hPa | 0 mm | - | 749 W/m² | - |
| 1777841175 | 25° C | 35% | 1009.4 hPa | 0 mm | - | 758 W/m² | - |
* Rain latest hour (hover to see other rain measurements)
** Current wind speed in m/s (hover to see current wind gust speed)